Change the Weather History Date:

Thursday, November 28, 2013

  Actual Average Record
Temperature  
Mean Temperature 71 °F -  
Max Temperature 79 °F 82 °F 87 °F (1997)
Min Temperature 63 °F 69 °F 63 °F (2013)
Cooling Degree Days 6    
Growing Degree Days 21 (Base 50)    
Moisture  
Dew Point 62 °F    
Average Humidity 66    
Maximum Humidity 94    
Minimum Humidity 43    
Precipitation  
Precipitation 0.00 in 0.23 in - ()
Sea Level Pressure  
Sea Level Pressure 30.16 in    
Wind  
Wind Speed 7 mph ()    
Max Wind Speed 14 mph    
Max Gust Speed -    
Visibility 8.9 miles    
Events      
Averages and records for this station are not official NWS values.
T = Trace of Precipitation, MM = Missing Value Source: Averaged Metar Reports

Daily Weather History Graph

Daily Weather History Graph

Search for Another Location

Airport or City:

Trip Planner

Search our weather history database for the weather conditions in past years. The results will help you decide how hot, cold, wet, or windy it might be!

Date:

Astronomy

Nov. 28, 2013 Rise Set
Actual Time 6:05 AM CST 5:16 PM CST
Civil Twilight 5:42 AM CST 5:39 PM CST
Nautical Twilight 5:15 AM CST 6:06 PM CST
Astronomical Twilight 4:49 AM CST 6:33 PM CST
Moon 1:45 AM CST (11/28) 1:53 PM CST (11/28)
Length of Visible Light 11h 57m
Length of Day
11h 10m
Waning Crescent, 22% of the Moon is Illuminated
Nov 28
Waning Crescent
Dec 2
New
Dec 9
First Quarter
Dec 17
Full
Dec 25
Last Quarter

Hourly Weather History & Observations

Time (CST) Temp. Heat Index Dew Point Humidity Pressure Visibility Wind Dir Wind Speed Gust Speed Precip Events Conditions
12:00 AM 68 °F - 65 °F 87% 30.18 in 12 mi WNW 5.8 mph - -   Scattered Clouds
3:00 AM 66 °F - 64 °F 89% 30.15 in 12 mi NW 5.8 mph - -   Scattered Clouds
5:00 AM 64.4 °F - 62.6 °F 94% 30.16 in - WNW 6.9 mph - N/A   Clear
6:00 AM 82 °F - 63 °F 43% 30.19 in 14 mi WNW 6.9 mph - -   Scattered Clouds
6:00 AM 64.4 °F - 62.6 °F 94% 30.18 in 6.2 mi WNW 6.9 mph - N/A   Partly Cloudy
7:00 AM 66.2 °F - 62.6 °F 88% 30.20 in 6.2 mi WNW 5.8 mph - N/A   Partly Cloudy
8:00 AM 69.8 °F - 62.6 °F 78% 30.21 in 6.2 mi NW 6.9 mph - N/A   Partly Cloudy
9:00 AM 72 °F - 62 °F 64% 30.22 in 16 mi NNW 11.5 mph - -   Scattered Clouds
9:00 AM 71.6 °F - 62.6 °F 73% 30.22 in 6.2 mi NNW 11.5 mph - N/A   Partly Cloudy
10:00 AM 73.4 °F - 62.6 °F 69% 30.21 in 6.2 mi NNW 10.4 mph - N/A   Partly Cloudy
11:00 AM 75.2 °F - 62.6 °F 65% 30.18 in 6.2 mi NNW 10.4 mph - N/A   Partly Cloudy
12:00 PM 78 °F - 62 °F 47% 30.16 in 16 mi NNW 9.2 mph - -   Scattered Clouds
12:00 PM 77.0 °F - 60.8 °F 57% 30.17 in 6.2 mi NNW 9.2 mph - N/A   Partly Cloudy
1:00 PM 78.8 °F - 62.6 °F 57% 30.11 in 6.2 mi NNW 9.2 mph - N/A   Partly Cloudy
2:00 PM 80.6 °F 81.5 °F 60.8 °F 51% 30.09 in 6.2 mi NNW 9.2 mph - N/A   Scattered Clouds
3:00 PM 79 °F - 60 °F 43% 30.09 in 14 mi North 10.4 mph - -   Mostly Cloudy
3:00 PM 78.8 °F - 60.8 °F 54% 30.08 in 6.2 mi North 10.4 mph - N/A   Mostly Cloudy
4:00 PM 78.8 °F - 59.0 °F 51% 30.08 in 6.2 mi NNW 9.2 mph - N/A   Mostly Cloudy
5:00 PM - - - N/A% 30.10 in 6.2 mi North 5.8 mph - N/A   Mostly Cloudy
6:00 PM 76 °F - 63 °F 56% 30.13 in 12 mi North 3.5 mph - -   Mostly Cloudy
6:00 PM 75.2 °F - 62.6 °F 65% 30.12 in 6.2 mi North 3.5 mph - N/A   Mostly Cloudy
9:00 PM 74 °F - 62 °F 57% 30.20 in 12 mi NNW 9.2 mph - -   Mostly Cloudy
9:00 PM - - - N/A% - 6.2 mi NNW 13.8 mph - N/A   Scattered Clouds